Location: Coffee Ditch
(40.9640°N, 122.7500°W)
Time: 07:59:22
(UTC+00:00)

ARGOS - Pass Details

Date: 08 September 2024
Orbit: 818 x 834 km, 98.4° (Epoch: 05 October)

Event Time Altitude Azimuth Distance (km) Brightness Sun altitude
Rises 12:50:01 0° 15° (NNE) 3,357 6.8 -11.0°
Reaches altitude 10° 12:52:23 10° 17° (NNE) 2,420 6.1 -10.6°
Maximum altitude 12:57:44 72° 102° (ESE) 864 3.5 -9.6°
Drops below altitude 10° 13:03:03 10° 187° (S) 2,407 5.4 -8.7°
Sets 13:05:23 0° 189° (S) 3,337 6.1 -8.2°
